FW1477 Weather Reports


time (UTC)temp
C
wind
direction
speed
KPH
gust
KPH
rain 1hr
cm
rain 24hr
cm
rain mn
cm
humidity
%
barometer
mb
20200229102016 10 243 4.8 11.3 0.00 0.00 0.00 57 1029.3
20200229101016 10 242 3.2 19.3 0.00 0.00 0.00 60 1028.7
20200229100016 10 247 9.7 19.3 0.00 0.00 0.00 61 1028.7
20200229095016 10 255 6.4 16.1 0.00 0.00 0.00 59 1028.8
20200229094016 10 256 4.8 16.1 0.00 0.00 0.00 59 1028.8
20200229093016 10 258 6.4 16.1 0.00 0.00 0.00 59 1028.8
20200229092016 10 261 8.0 12.9 0.00 0.00 0.00 58 1028.8
20200229091016 10 261 6.4 12.9 0.00 0.00 0.00 55 1028.4
20200229090016 10 261 6.4 11.3 0.00 0.00 0.00 54 1028.9
20200229085016 11 261 8.0 11.3 0.00 0.00 0.00 53 1028.9
20200229084018 11 261 1.6 9.7 0.00 0.00 0.00 51 1029.4
20200229083016 11 261 1.6 9.7 0.00 0.00 0.00 52 1029.1
20200229082018 11 261 6.4 9.7 0.00 0.00 0.00 52 1029.2
20200229081016 11 261 4.8 11.3 0.00 0.00 0.00 52 1029.4
20200229080016 11 261 6.4 11.3 0.00 0.00 0.00 51 1029.7
20200229075016 12 262 4.8 11.3 0.00 0.00 0.00 50 1029.9
20200229074016 12 262 4.8 12.9 0.00 0.00 0.00 49 1030.0
20200229073015 12 262 6.4 12.9 0.00 0.00 0.00 49 1030.1
20200229072015 12 267 4.8 12.9 0.00 0.00 0.00 48 1029.8
20200229071015 12 271 8.0 11.3 0.00 0.00 0.00 46 1030.4
20200229070015 12 272 4.8 11.3 0.00 0.00 0.00 46 1030.6
20200229065015 12 273 3.2 9.7 0.00 0.00 0.00 45 1030.2
20200229064015 13 273 6.4 12.9 0.00 0.00 0.00 45 1030.2
20200229063015 13 274 8.0 12.9 0.00 0.00 0.00 44 1030.4
20200229062015 13 283 4.8 11.3 0.00 0.00 0.00 42 1030.5
20200229061015 14 293 8.0 11.3 0.00 0.00 0.00 41 1030.6
20200229060016 14 303 4.8 11.3 0.00 0.00 0.00 38 1030.6
20200229055016 15 308 4.8 11.3 0.00 0.00 0.00 34 1030.5
20200229054016 15 309 1.6 9.7 0.00 0.00 0.00 34 1031.1
20200229053016 15 309 1.6 9.7 0.00 0.00 0.00 35 1031.4
20200229052016 15 309 0.0 8.0 0.00 0.00 0.00 33 1030.9
20200229051015 16 309 0.0 4.8 0.00 0.00 0.00 25 1031.3
20200229050015 16 309 0.0 8.0 0.00 0.00 0.00 22 1031.1
20200229045016 16 308 1.6 9.7 0.00 0.00 0.00 27 1030.8
20200229044016 16 309 4.8 9.7 0.00 0.00 0.00 37 1030.9
20200229043015 16 309 4.8 9.7 0.00 0.00 0.00 36 1030.9
20200229042015 16 309 1.6 9.7 0.00 0.00 0.00 36 1030.8
20200229041015 17 308 0.0 9.7 0.00 0.00 0.00 35 1031.0
20200229040015 17 309 1.6 9.7 0.00 0.00 0.00 30 1030.8
20200229035015 17 309 0.0 9.7 0.00 0.00 0.00 20 1030.0
20200229034015 17 309 1.6 11.3 0.00 0.00 0.00 32 1030.2
20200229033015 17 309 1.6 11.3 0.00 0.00 0.00 30 1029.6
20200229032016 17 310 0.0 14.5 0.00 0.00 0.00 24 1028.8
20200229031015 17 290 3.2 14.5 0.00 0.00 0.00 28 1028.2
20200229030015 18 252 6.4 19.3 0.00 0.00 0.00 32 1028.0
20200229025015 18 246 11.3 20.9 0.00 0.00 0.00 31 1027.6
20200229024015 18 241 11.3 20.9 0.00 0.00 0.00 30 1027.4
20200229023015 18 235 9.7 17.7 0.00 0.00 0.00 28 1027.0
20200229022015 18 224 8.0 16.1 0.00 0.00 0.00 26 1026.9
20200229021017 18 153 8.0 16.1 0.00 0.00 0.00 26 1026.4
20200229020017 18 91 6.4 11.3 0.00 0.00 0.00 25 1026.3
20200229015017 19 82 4.8 9.7 0.00 0.00 0.00 24 1026.2
20200229014017 20 82 0.0 6.4 0.00 0.00 0.00 22 1026.5
20200229013017 20 81 1.6 8.0 0.00 0.00 0.00 22 1026.4
20200229012017 20 82 1.6 8.0 0.00 0.00 0.00 21 1026.3
20200229011017 21 82 0.0 1.6 0.00 0.00 0.00 21 1026.7
20200229010017 21 82 0.0 3.2 0.00 0.00 0.00 20 1027.0
20200229005017 21 82 0.0 3.2 0.00 0.00 0.00 20 1026.9
20200229004017 22 82 0.0 8.0 0.00 0.00 0.00 20 1026.8
20200229003017 21 82 0.0 9.7 0.00 0.00 0.00 20 1026.8
20200229002017 22 82 3.2 9.7 0.00 0.00 0.00 19 1026.7
20200229001017 22 82 1.6 12.9 0.00 0.00 0.00 19 1027.2
20200229000017 22 82 3.2 12.9 0.00 0.00 0.00 19 1027.2
20200228235017 22 84 1.6 9.7 0.00 0.00 0.00 19 1027.0
20200228234017 22 84 1.6 11.3 0.00 0.00 0.00 19 1027.1
20200228233017 22 83 1.6 11.3 0.00 0.00 0.00 19 1027.1
20200228232016 22 86 3.2 11.3 0.00 0.00 0.00 19 1027.1
20200228231017 22 93 1.6 12.9 0.00 0.00 0.00 19 1027.1
20200228230017 22 79 4.8 12.9 0.00 0.00 0.00 20 1027.0
20200228225016 21 55 3.2 12.9 0.00 0.00 0.00 20 1027.2
20200228224016 21 56 4.8 16.1 0.00 0.00 0.00 21 1026.6
20200228223016 21 47 6.4 16.1 0.00 0.00 0.00 21 1026.7
20200228222017 21 47 3.2 17.7 0.00 0.00 0.00 21 1027.3
20200228221017 20 49 6.4 17.7 0.00 0.00 0.00 22 1026.9
20200228220016 20 55 3.2 12.9 0.00 0.00 0.00 22 1027.5
20200228215016 19 55 1.6 11.3 0.00 0.00 0.00 22 1027.5
20200228214016 20 56 1.6 9.7 0.00 0.00 0.00 22 1027.2
20200228213016 20 55 1.6 14.5 0.00 0.00 0.00 22 1027.8
20200228212016 20 57 4.8 14.5 0.00 0.00 0.00 21 1027.8
20200228211016 20 59 3.2 12.9 0.00 0.00 0.00 22 1028.1
20200228210016 18 60 4.8 12.9 0.00 0.00 0.00 23 1027.7
20200228205016 18 79 3.2 12.9 0.00 0.00 0.00 23 1027.8
20200228204016 18 96 4.8 12.9 0.00 0.00 0.00 22 1028.5
20200228203016 19 104 3.2 17.7 0.00 0.00 0.00 22 1028.6
20200228202016 18 48 3.2 17.7 0.00 0.00 0.00 22 1028.8
20200228201016 18 47 3.2 14.5 0.00 0.00 0.00 23 1029.2
20200228200017 18 98 3.2 17.7 0.00 0.00 0.00 22 1029.5
20200228195016 17 122 3.2 17.7 0.00 0.00 0.00 23 1029.6
20200228194016 17 68 3.2 14.5 0.00 0.00 0.00 22 1029.8
20200228193016 17 81 4.8 14.5 0.00 0.00 0.00 23 1030.3
20200228192016 17 133 1.6 14.5 0.00 0.00 0.00 23 1030.6
20200228191016 16 95 6.4 16.1 0.00 0.00 0.00 24 1030.6
20200228190016 16 46 4.8 16.1 0.00 0.00 0.00 24 1031.3
20200228185016 16 52 3.2 14.5 0.00 0.00 0.00 23 1031.1
20200228184016 16 42 3.2 14.5 0.00 0.00 0.00 24 1031.4
20200228183016 15 40 4.8 14.5 0.00 0.00 0.00 24 1031.2
20200228182016 15 22 3.2 16.1 0.00 0.00 0.00 24 1031.8
20200228181016 15 33 1.6 16.1 0.00 0.00 0.00 25 1032.0
20200228180016 15 54 4.8 14.5 0.00 0.00 0.00 25 1031.7
20200228175016 14 60 3.2 14.5 0.00 0.00 0.00 24 1031.8
20200228174016 14 59 3.2 12.9 0.00 0.00 0.00 25 1031.9
20200228173016 14 63 1.6 11.3 0.00 0.00 0.00 25 1031.9
20200228172016 13 51 1.6 11.3 0.00 0.00 0.00 26 1032.1
20200228171016 13 45 1.6 8.0 0.00 0.00 0.00 26 1032.1
20200228170016 13 47 1.6 8.0 0.00 0.00 0.00 27 1032.2
20200228165015 13 63 0.0 9.7 0.00 0.00 0.00 27 1032.4
20200228164015 12 63 1.6 12.9 0.00 0.00 0.00 27 1032.4
20200228163017 12 48 3.2 12.9 0.00 0.00 0.00 28 1032.4
20200228162015 12 43 1.6 12.9 0.00 0.00 0.00 26 1032.5
20200228161015 12 36 1.6 12.9 0.00 0.00 0.00 27 1032.5
20200228160015 12 40 3.2 12.9 0.00 0.00 0.00 30 1032.4
20200228155015 11 266 0.0 12.9 0.00 0.00 0.00 31 1032.2
20200228154015 11 259 0.0 9.7 0.00 0.00 0.00 34 1031.6
20200228153015 10 259 1.6 9.7 0.00 0.00 0.00 36 1031.6
20200228152015 9 259 1.6 8.0 0.00 0.00 0.00 39 1031.4
20200228151015 8 259 0.0 9.7 0.00 0.00 0.00 43 1031.3
20200228150015 8 259 0.0 9.7 0.00 0.00 0.00 50 1031.0
20200228145015 7 259 1.6 9.7 0.00 0.00 0.00 52 1030.8
20200228144018 7 260 1.6 9.7 0.00 0.00 0.00 54 1030.3
20200228143017 6 260 1.6 8.0 0.00 0.00 0.00 55 1030.9
20200228142017 6 260 1.6 9.7 0.00 0.00 0.00 56 1030.3
20200228141017 5 259 3.2 11.3 0.00 0.00 0.00 58 1030.3
20200228140017 5 260 4.8 11.3 0.00 0.00 0.00 60 1030.1
20200228135017 5 260 1.6 11.3 0.00 0.00 0.00 58 1030.4
20200228134017 5 260 3.2 11.3 0.00 0.00 0.00 57 1030.3
20200228133017 5 260 3.2 9.7 0.00 0.00 0.00 58 1030.1
20200228132017 5 260 3.2 11.3 0.00 0.00 0.00 57 1030.6
20200228131017 5 261 4.8 14.5 0.00 0.00 0.00 57 1030.4
20200228130017 5 261 8.0 14.5 0.00 0.00 0.00 55 1030.8
20200228125017 5 261 8.0 12.9 0.00 0.00 0.00 54 1030.9
20200228124018 5 262 8.0 14.5 0.00 0.00 0.00 56 1030.9
20200228123017 5 268 8.0 14.5 0.00 0.00 0.00 55 1031.2
20200228122017 5 270 6.4 12.9 0.00 0.00 0.00 56 1031.0
20200228121017 5 275 8.0 12.9 0.00 0.00 0.00 56 1031.2
20200228120017 6 278 8.0 12.9 0.00 0.00 0.00 55 1031.2
20200228115017 6 284 4.8 12.9 0.00 0.00 0.00 53 1031.2
20200228114017 6 294 8.0 12.9 0.00 0.00 0.00 54 1031.1
20200228113017 6 296 4.8 12.9 0.00 0.00 0.00 53 1030.8
20200228112016 6 301 6.4 12.9 0.00 0.00 0.00 52 1030.8
20200228111016 6 23 4.8 12.9 0.00 0.00 0.00 52 1030.8
20200228110018 6 27 3.2 8.0 0.00 0.00 0.00 52 1030.8
20200228105017 6 27 3.2 8.0 0.00 0.00 0.00 49 1030.3
20200228104017 6 27 3.2 8.0 0.00 0.00 0.00 45 1030.1
20200228103017 6 27 1.6 8.0 0.00 0.00 0.00 47 1030.2